Simultaneous Nadir Overpasses (SNOs) Predictions

Prediction of SNOs between LANDSAT-8 and METOP-B Satellite Orbit:

Table of predicted SNOs for the next 14.0 days since TLE Epoch: 11/30/2024
Index Date (LANDSAT-8) Time (LANDSAT-8) Lat,Lon (LANDSAT-8) SZA (LANDSAT-8 ) Date (METOP-B) Time (METOP-B) Lat,Lon (METOP-B) SZA (METOP-B ) Distance(km) Time Diff (sec)
1 12/01/2024 12:03:18 81.41, 44.20 105.98 12/01/2024 12:03:06 81.42, 44.03 105.96 2.79 12
2 12/01/2024 12:52:44 -81.43,-147.84 73.97 12/01/2024 12:53:45 -81.42,-147.96 73.96 2.08 61
3 12/04/2024 07:37:31 81.42, 110.73 106.36 12/04/2024 07:37:10 81.42, 110.56 106.33 2.84 21
4 12/04/2024 08:26:58 -81.42, -81.69 73.65 12/04/2024 08:27:50 -81.42, -81.82 73.64 2.25 52
5 12/07/2024 03:11:42 81.42, 177.14 106.66 12/07/2024 03:11:12 81.42, 177.28 106.66 2.39 30
6 12/07/2024 04:01:09 -81.41, -15.25 73.35 12/07/2024 04:01:52 -81.42, -15.08 73.31 3.07 43
7 12/09/2024 22:45:52 81.43,-116.17 106.93 12/09/2024 22:45:15 81.42,-116.18 106.91 0.82 37
8 12/09/2024 23:35:19 -81.43, 51.45 73.07 12/09/2024 23:35:55 -81.42, 51.47 73.06 0.43 36
9 12/12/2024 18:20:02 81.41, -49.98 107.08 12/12/2024 18:19:18 81.42, -49.85 107.08 2.23 44



Historial Predications of SNOs between LANDSAT-8 and METOP-B
